BLOCK DM-SL R/B, 29350

Orbit data source: Space-Track

BLOCK DM-SL R/B, 29350 is space debris in HEO originally from a launch on Tue, 22 Aug 2006 UTC launched from the Sea Launch (SEAL). Debris objects in space refer to the collection of defunct objects orbiting the Earth. Examples of debris include non-operational satellites, rocket bodies, and fragments generated from explosions, collisions, or faulty payload assembly.

Loading next visibility...
Identifier
29350, 2006-034B
Orbit
HEO
Country
Flag of USUS / SEAL
Related business
Manufacturer
RKKE
Mission
Spacecraft
Bus & Motor
BLOK DM2, 11D58M
Mass
~3,070 kg wet, ~3,070 kg dry
Launch date (UTC)
2006-08-22 (20 years ago)
Launch vehicle
Unknown
Launch site
Sea Launch (SEAL)
Object type
Payload
Rocket body
Debris
Shape & HBR
Cyl, 3.1 m
Radar Cross Section
23.684 m², Large (>1 m²)

Expand to show TLE details & history
Last TLE update: 12 hours ago

TLE from 12 hours ago
0 BLOCK DM-SL R/B
1 29350U 06034B   26093.71740223 -.00000072  00000-0  00000+0 0  9997
2 29350   1.3363  13.4520 6385784  97.5511 190.0118  2.12152692152032
Epoch: 2026-04-03T17:13Z
TLE epoch observation values (Epoch: 2026-04-03T17:13:03.552Z)
Latitude
-1.30615°
Longitude
-156.41332°
Altitude
35,417.599 km
Speed
1.869 km/s
True Right ascension
19h 35m 35s
True Declination
-1° 18' 17"
Sunlit
Object was in daylight at epoch
Visualization orbit readout
Latitude
Unknown
Longitude
Unknown
Altitude
Unknown
Speed
Unknown
Apparent Right ascension
Unknown
Apparent Declination
Unknown
Sunlit
N/A
Visualization observer readout
Local Sidereal Time
11:27:23
Azimuth
Unknown
Elevation
Unknown
Doppler factor
Unknown
Orbital elements
Apogee altitude
35,549.563 km
Perigee altitude
2,869.865 km
Semi-major axis
25,587.851 km
Eccentricity
0.63858
Inclination
1.3363°
RAAN
13.452°
Arg. of periapsis
97.5511°
True anomaly
182.87383°
Mean anomaly
190.0118°
Eccentric anomaly
186.11457°
Mean motion
0.53026 °/min
Orbital period
678.91 mins
BSTAR
0
Loading maneuver chart data...
Computing Atmospheric mass density...
Loading historical data...
Loading historical data...
Loading historical data...
Loading historical data...
Loading historical data...
Loading historical data...
Loading historical data...
Other satellites on launch #34 in the year 2006 (2006-08-22 UTC)

Documentation

Showing up to 5 results
|